Location: Home
(51.5204°N, 2.5456°W)
Time: 15:25:56
(UTC+00:00)

N. Korean satellite - Pass Details

Date: 15 October 2019
Orbit: 456 x 506 km, 97.2° (Epoch: 16 November)

Event Time Altitude Azimuth Distance (km) Brightness Sun altitude
Rises 06:19:10 0° 25° (NNE) 2,534 10.6 -12.3°
Reaches altitude 10° 06:21:37 10° 43° (NE) 1,659 9.9 -11.9°
Maximum altitude 06:24:21 20° 93° (E) 1,158 9.6 -11.5°
Drops below altitude 10° 06:27:05 10° 143° (SE) 1,670 9.8 -11.1°
Sets 06:29:33 0° 160° (SSE) 2,555 10.5 -10.7°
